Location: Prairie Dale
(45.6972°N, 104.5033°W)
Time: 07:19:46
(UTC+00:00)

EO-79 - Pass Details

Date: 03 July 2022
Orbit: 588 x 603 km, 98.0° (Epoch: 15 August)

Event Time Altitude Azimuth Distance (km) Brightness Sun altitude
Rises 09:20:03 0° 6° (N) 2,858 ? -14.6°
Reaches altitude 10° 09:22:19 10° 359° (N) 1,953 ? -14.3°
Maximum altitude 09:26:16 40° 290° (WNW) 897 ? -14.0°
Enters shadow 09:28:39 21° 232° (SW) 1,373 ? -13.7°
